Regional Weather Roundup
Issued by NWS

Home | Current Version | Previous Version | Text Only | Print | Product List | Glossary On
Versions: 1 2 3 4 5 6 7 8 9 10 11 12 13 14 15 16 17 18 19 20 21 22 23 24 25 26 27 28 29 30 31 32 33 34 35 36 37 38 39 40 41 42 43 44 45 46 47 48 49 50
000
ASUS43 KLMK 201310
RWRKY
KENTUCKY REGIONAL WEATHER ROUNDUP
NATIONAL WEATHER SERVICE LOUISVILLE KY
800 AM EST SAT DEC 20 2014

NOTE "FAIR" INDICATES FEW OR NO CLOUDS BELOW 12,000 FEET
WITH NO SIGNIFICANT WEATHER AND/OR OBSTRUCTIONS TO VISIBILITY.

KYZ001>023-026-027-061>063-070>075-201400-
WESTERN AND SOUTH CENTRAL KENTUCKY

CITY           SKY/WX    TMP DP  RH WIND       PRES   REMARKS
PADUCAH        CLOUDY    35  26  69 NE3       30.28R
HENDERSON      CLOUDY    30  25  80 NE6       30.29S WCI  24
OWENSBORO      CLOUDY    31  25  78 NE7       30.29F WCI  24
HOPKINSVILLE   CLOUDY    32  27  81 NE5       30.27S WCI  28
BOWLING GREEN  MOCLDY    31  24  75 CALM      30.28R
GLASGOW        CLOUDY    30  26  83 CALM      30.27R
$$

KYZ024-025-028>034-038-045-046-053-201400-
NORTH CENTRAL KENTUCKY

CITY           SKY/WX    TMP DP  RH WIND       PRES   REMARKS
LOUISVILLE/SDF FLURRIES  30  25  81 N6        30.30R WCI  24
LOUISVILLE/LOU CLOUDY    29  25  85 NW5       30.31R WCI  24
FORT KNOX      CLOUDY    29  24  80 N3        30.27S
$$

KYZ035>037-039>044-047>052-055>060-089>105-201400-
NORTHEAST KENTUCKY

CITY           SKY/WX    TMP DP  RH WIND       PRES   REMARKS
LEXINGTON      CLOUDY    28  23  81 NE5       30.26R WCI  23
COVINGTON      LGT SNOW  29  23  78 CALM      30.27R
FRANKFORT      CLOUDY    28  23  81 N3        30.27R
$$

KYZ054-064>069-076>088-106>120-201400-
SOUTHEAST KENTUCKY

CITY           SKY/WX    TMP DP  RH WIND       PRES   REMARKS
JACKSON        CLOUDY    28  22  78 CALM      30.23R
LONDON         CLOUDY    30  23  75 NE5       30.23R WCI  25
SOMERSET       CLOUDY    30  25  80 CALM      30.26R
MIDDLESBORO    LGT RAIN  34  30  85 CALM      30.22S
MONTICELLO     CLOUDY    30  27  89 CALM      30.27R FOG
$$



USA.gov is the U.S. government's official web portal to all federal, state and local government web resources and services.